Provo, UT

11:16 AM MST on November 22, 2019 (GMT -0700)
Provo Municipal

Weather History for KPVU - September, 2019

Change the Weather History Date:

Tuesday, September 3, 2019

  Actual Average Record
Temperature  
Mean Temperature 79 °F -  
Max Temperature 90 °F 80 °F 93 °F (1982)
Min Temperature 69 °F 52 °F 46 °F (1989)
Cooling Degree Days 14    
Growing Degree Days 29 (Base 50)    
Moisture  
Dew Point 50 °F    
Average Humidity 39    
Maximum Humidity 61    
Minimum Humidity 22    
Precipitation  
Precipitation 0.00 in - - ()
Sea Level Pressure  
Sea Level Pressure 29.96 in    
Wind  
Wind Speed 6 mph (North)    
Max Wind Speed 17 mph    
Max Gust Speed -    
Visibility 10 miles    
Events      
Averages and records for this station are not official NWS values.
T = Trace of Precipitation, MM = Missing Value Source: NWS Daily Summary

Daily Weather History Graph

Daily Weather History Graph

Search for Another Location

Airport or City:

Astronomy

Sep. 03, 2019 Rise Set
Actual Time 6:56 AM MDT 7:55 PM MDT
Civil Twilight 6:28 AM MDT 8:23 PM MDT
Nautical Twilight 5:55 AM MDT 8:56 PM MDT
Astronomical Twilight 5:20 AM MDT 9:30 PM MDT
Moon 11:53 AM MDT (9/3) 10:54 PM MDT (9/3)
Length of Visible Light 13h 54m
Length of Day
12h 59m
Waxing Crescent, 25% of the Moon is Illuminated
Sep 3
Waxing Crescent
Sep 5
First Quarter
Sep 13
Full
Sep 21
Last Quarter
Sep 28
New

Hourly Weather History & Observations

Time (MDT) Temp. Heat Index Dew Point Humidity Pressure Visibility Wind Dir Wind Speed Gust Speed Precip Events Conditions
12:56 AM 75.9 °F - 46.0 °F 35% 29.94 in 10.0 mi SSE 4.6 mph - N/A   Clear
1:56 AM 73.0 °F - 51.1 °F 46% 29.95 in 10.0 mi ESE 4.6 mph - N/A   Clear
2:56 AM 73.9 °F - 48.9 °F 41% 29.95 in 10.0 mi SSE 4.6 mph - N/A   Clear
3:56 AM 72.0 °F - 52.0 °F 49% 29.95 in 10.0 mi Calm Calm - N/A   Clear
4:56 AM 70.0 °F - 53.1 °F 55% 29.97 in 10.0 mi South 4.6 mph - N/A   Partly Cloudy
5:56 AM 69.1 °F - 51.1 °F 53% 29.96 in 10.0 mi NE 5.8 mph - N/A   Partly Cloudy
6:56 AM 71.1 °F - 48.0 °F 44% 29.98 in 10.0 mi Variable 4.6 mph - N/A   Mostly Cloudy
7:56 AM 70.0 °F - 48.9 °F 47% 29.99 in 10.0 mi NNE 3.5 mph - N/A   Mostly Cloudy
8:56 AM 73.0 °F - 59.0 °F 61% 30.01 in 10.0 mi SW 6.9 mph - N/A   Mostly Cloudy
9:56 AM 75.9 °F - 46.0 °F 35% 30.02 in 10.0 mi Calm Calm - N/A   Mostly Cloudy
10:56 AM 73.9 °F - 52.0 °F 46% 30.04 in 10.0 mi Calm Calm - 0.00 in   Mostly Cloudy
11:56 AM 81.0 °F - 46.0 °F 29% 30.00 in 10.0 mi North 4.6 mph - N/A   Mostly Cloudy
12:56 PM 84.0 °F - 51.1 °F 32% 29.99 in 7.0 mi WNW 12.7 mph - N/A   Mostly Cloudy
1:56 PM 87.1 °F - 50.0 °F 28% 29.97 in 10.0 mi NNW 13.8 mph - N/A   Mostly Cloudy
2:56 PM 88.0 °F 85.7 °F 53.1 °F 30% 29.94 in 10.0 mi NW 17.3 mph - N/A   Mostly Cloudy
3:56 PM 89.1 °F - 52.0 °F 28% 29.92 in 10.0 mi NW 13.8 mph - N/A   Clear
4:56 PM 88.0 °F - 50.0 °F 27% 29.91 in 10.0 mi NW 9.2 mph - N/A   Mostly Cloudy
5:56 PM 89.1 °F - 46.0 °F 22% 29.90 in 10.0 mi NW 5.8 mph - N/A   Clear
6:56 PM 84.0 °F - 48.9 °F 29% 29.91 in 10.0 mi SSE 15.0 mph - N/A   Mostly Cloudy
7:56 PM 82.0 °F - 48.0 °F 30% 29.94 in 10.0 mi South 15.0 mph - N/A   Mostly Cloudy
8:56 PM 80.1 °F - 45.0 °F 29% 29.95 in 10.0 mi South 5.8 mph - N/A   Clear
9:56 PM 75.0 °F - 50.0 °F 41% 29.96 in 10.0 mi NE 5.8 mph - N/A   Clear
10:56 PM 71.1 °F - 50.0 °F 47% 29.97 in 10.0 mi NNE 4.6 mph - N/A   Clear
11:56 PM 70.0 °F - 55.0 °F 59% 29.95 in 10.0 mi Calm Calm - N/A   Clear